Location: Unspecified
(0.0000°N, 0.0000°E)
Time: 01:24:40
(UTC+00:00)

Vanguard 1 - Pass Details

Date: 29 November 2019
Orbit: 652 x 3832 km, 34.3° (Epoch: 10 December)

Event Time Altitude Azimuth Distance (km) Brightness Sun altitude
Rises 03:33:21 0° 232° (SW) 7,270 14.3 -31.1°
Reaches altitude 10° 03:37:47 10° 232° (SW) 6,505 14.0 -30.1°
Maximum altitude 04:01:10 90° 143° (SE) 3,771 12.8 -24.8°
Drops below altitude 10° 04:21:20 10° 52° (NE) 5,764 14.3 -20.1°
Sets 04:24:59 0° 53° (NE) 6,454 14.7 -19.3°
